Mora, MN

6:45 PM CDT on May 26, 2017 (GMT -0500)
Mora Municipal

Weather History for KJMR - March, 2013

Change the Weather History Date:

Friday, March 22, 2013

  Actual Average Record
Temperature  
Mean Temperature 14 °F -  
Max Temperature 33 °F 43 °F 71 °F (1945)
Min Temperature -4 °F 20 °F -9 °F (1940)
Degree Days  
Heating Degree Days 50    
Moisture  
Dew Point 5 °F    
Average Humidity 63    
Maximum Humidity 85    
Minimum Humidity 38    
Precipitation  
Precipitation 0.00 in - - ()
Sea Level Pressure  
Sea Level Pressure 30.06 in    
Wind  
Wind Speed 1 mph (WSW)    
Max Wind Speed 7 mph    
Max Gust Speed -    
Visibility 10 miles    
Events      
Averages and records for this station are not official NWS values.
T = Trace of Precipitation, MM = Missing Value Source: NWS Daily Summary

Daily Weather History Graph

Daily Weather History Graph

Search for Another Location

Airport or City:

Trip Planner

Search our weather history database for the weather conditions in past years. The results will help you decide how hot, cold, wet, or windy it might be!

Date:

Astronomy

Mar. 22, 2013 Rise Set
Actual Time 7:11 AM CDT 7:28 PM CDT
Civil Twilight 6:41 AM CDT 7:58 PM CDT
Nautical Twilight 6:06 AM CDT 8:33 PM CDT
Astronomical Twilight 5:30 AM CDT 9:09 PM CDT
Moon 2:43 PM CDT (3/22) 4:26 AM CDT (3/22)
Length of Visible Light 13h 16m
Length of Day
12h 16m
Waxing Gibbous, 77% of the Moon is Illuminated
Mar 22
Waxing Gibbous
Mar 27
Full
Apr 2
Last Quarter
Apr 10
New
Apr 18
First Quarter

Hourly Weather History & Observations

Time (CDT) Temp. Windchill Dew Point Humidity Pressure Visibility Wind Dir Wind Speed Gust Speed Precip Events Conditions
12:12 AM 5.0 °F - -0.4 °F 78% 30.06 in 10.0 mi Calm Calm - N/A   Clear
12:32 AM 3.2 °F - -0.4 °F 85% 30.07 in 10.0 mi Calm Calm - N/A   Clear
12:52 AM 3.2 °F - -2.2 °F 78% 30.07 in 10.0 mi Calm Calm - N/A   Clear
1:12 AM 3.2 °F - -0.4 °F 85% 30.07 in 10.0 mi Calm Calm - N/A   Clear
1:32 AM 1.4 °F - -4.0 °F 78% 30.07 in 10.0 mi Calm Calm - N/A   Clear
1:52 AM 1.4 °F - -4.0 °F 78% 30.07 in 10.0 mi Calm Calm - N/A   Clear
2:12 AM 1.4 °F - -4.0 °F 78% 30.07 in 10.0 mi Calm Calm - N/A   Clear
2:32 AM 1.4 °F - -4.0 °F 78% 30.07 in 10.0 mi Calm Calm - N/A   Clear
2:52 AM -0.4 °F - -5.8 °F 78% 30.07 in 10.0 mi Calm Calm - N/A   Clear
3:12 AM -0.4 °F -8.3 °F -4.0 °F 85% 30.07 in 10.0 mi NNW 3.5 mph - N/A   Clear
3:32 AM 1.4 °F -6.2 °F -4.0 °F 78% 30.07 in 10.0 mi NNW 3.5 mph - N/A   Clear
3:52 AM 1.4 °F - -4.0 °F 78% 30.07 in 10.0 mi Calm Calm - N/A   Clear
4:12 AM 1.4 °F - -4.0 °F 78% 30.06 in 10.0 mi Calm Calm - N/A   Clear
4:32 AM -0.4 °F - -5.8 °F 78% 30.06 in 10.0 mi Calm Calm - N/A   Clear
4:52 AM -0.4 °F - -5.8 °F 78% 30.06 in 10.0 mi Calm Calm - N/A   Clear
5:12 AM -2.2 °F - -5.8 °F 85% 30.06 in 10.0 mi Calm Calm - N/A   Clear
5:32 AM -2.2 °F - -5.8 °F 85% 30.06 in 10.0 mi Calm Calm - N/A   Clear
5:52 AM -2.2 °F - -7.6 °F 78% 30.06 in 10.0 mi Calm Calm - N/A   Clear
6:12 AM -0.4 °F - -5.8 °F 78% 30.06 in 10.0 mi Calm Calm - N/A   Clear
6:32 AM -4.0 °F - -7.6 °F 85% 30.06 in 10.0 mi Calm Calm - N/A   Clear
6:52 AM -4.0 °F - -7.6 °F 85% 30.06 in 10.0 mi Calm Calm - N/A   Clear
7:12 AM -2.2 °F - -7.6 °F 78% 30.07 in 10.0 mi Calm Calm - N/A   Clear
7:32 AM -2.2 °F - -7.6 °F 78% 30.07 in 10.0 mi Calm Calm - N/A   Clear
7:51 AM -4.0 °F - -7.6 °F 85% 30.07 in 10.0 mi Calm Calm - N/A   Clear
8:12 AM -0.4 °F - -5.8 °F 78% 30.07 in 10.0 mi Calm Calm - N/A   Clear
8:32 AM 3.2 °F - -4.0 °F 72% 30.07 in 10.0 mi Calm Calm - N/A   Clear
8:52 AM 10.4 °F - 5.0 °F 79% 30.07 in 10.0 mi Calm Calm - N/A   Clear
9:12 AM 15.8 °F - 8.6 °F 73% 30.07 in 10.0 mi Calm Calm - N/A   Clear
9:32 AM 19.4 °F - 6.8 °F 58% 30.06 in 10.0 mi Calm Calm - N/A   Clear
9:52 AM 19.4 °F - 8.6 °F 63% 30.06 in 10.0 mi Calm Calm - N/A   Clear
10:12 AM 23.0 °F - 8.6 °F 54% 30.06 in 10.0 mi Calm Calm - N/A   Clear
10:32 AM 26.6 °F - 10.4 °F 51% 30.06 in 10.0 mi Calm Calm - N/A   Clear
10:52 AM 26.6 °F - 10.4 °F 51% 30.06 in 10.0 mi Calm Calm - N/A   Clear
11:12 AM 28.4 °F - 8.6 °F 43% 30.06 in 10.0 mi Calm Calm - N/A   Clear
11:32 AM 30.2 °F - 10.4 °F 44% 30.06 in 10.0 mi Calm Calm - N/A   Clear
11:52 AM 32.0 °F - 10.4 °F 41% 30.06 in 10.0 mi Calm Calm - N/A   Clear
12:12 PM 32.0 °F - 10.4 °F 41% 30.06 in 10.0 mi Calm Calm - N/A   Clear
12:32 PM 32.0 °F - 10.4 °F 41% 30.06 in 10.0 mi Calm Calm - N/A   Clear
12:52 PM 32.0 °F - 10.4 °F 41% 30.05 in 10.0 mi Calm Calm - N/A   Clear
1:12 PM 33.8 °F - 12.2 °F 41% 30.05 in 10.0 mi Calm Calm - N/A   Clear
1:32 PM 33.8 °F 30.8 °F 12.2 °F 41% 30.05 in 10.0 mi SSW 3.5 mph - N/A   Clear
1:52 PM 33.8 °F - 10.4 °F 38% 30.04 in 10.0 mi Calm Calm - N/A   Clear
2:12 PM 33.8 °F - 10.4 °F 38% 30.04 in 10.0 mi Calm Calm - N/A   Clear
2:32 PM 33.8 °F - 10.4 °F 38% 30.03 in 10.0 mi Calm Calm - N/A   Clear
3:12 PM 33.8 °F - 12.2 °F 41% 30.03 in 10.0 mi Calm Calm - N/A   Clear
3:32 PM 33.8 °F 30.8 °F 12.2 °F 41% 30.03 in 10.0 mi SSW 3.5 mph - N/A   Clear
3:52 PM 33.8 °F - 12.2 °F 41% 30.04 in 10.0 mi Calm Calm - N/A   Clear
4:12 PM 33.8 °F - 10.4 °F 38% 30.03 in 10.0 mi Calm Calm - N/A   Clear
4:32 PM 33.8 °F 30.8 °F 12.2 °F 41% 30.03 in 10.0 mi South 3.5 mph - N/A   Clear
4:52 PM 33.8 °F 30.8 °F 12.2 °F 41% 30.03 in 10.0 mi SW 3.5 mph - N/A   Clear
5:12 PM 33.8 °F 27.7 °F 14.0 °F 44% 30.04 in 10.0 mi South 6.9 mph - N/A   Clear
5:32 PM 33.8 °F 28.6 °F 14.0 °F 44% 30.04 in 10.0 mi SW 5.8 mph - N/A   Clear
5:52 PM 32.0 °F 28.7 °F 12.2 °F 44% 30.05 in 10.0 mi SSW 3.5 mph - N/A   Clear
6:12 PM 32.0 °F 28.7 °F 12.2 °F 44% 30.05 in 10.0 mi SSW 3.5 mph - N/A   Clear
6:32 PM 32.0 °F 28.7 °F 12.2 °F 44% 30.05 in 10.0 mi SW 3.5 mph - N/A   Clear
6:52 PM 32.0 °F 28.7 °F 14.0 °F 48% 30.05 in 10.0 mi WSW 3.5 mph - N/A   Clear
7:12 PM 30.2 °F 26.7 °F 12.2 °F 47% 30.06 in 10.0 mi WSW 3.5 mph - N/A   Clear
7:32 PM 28.4 °F 24.6 °F 12.2 °F 51% 30.06 in 10.0 mi West 3.5 mph - N/A   Clear
7:52 PM 26.6 °F 21.2 °F 12.2 °F 55% 30.06 in 10.0 mi West 4.6 mph - N/A   Clear
8:12 PM 26.6 °F 21.2 °F 14.0 °F 59% 30.06 in 10.0 mi WNW 4.6 mph - N/A   Clear
8:32 PM 26.6 °F - 14.0 °F 59% 30.06 in 10.0 mi Calm Calm - N/A   Clear
8:52 PM 24.8 °F - 12.2 °F 59% 30.06 in 10.0 mi Calm Calm - N/A   Clear
9:12 PM 21.2 °F - 10.4 °F 63% 30.07 in 10.0 mi Calm Calm - N/A   Clear
9:32 PM 19.4 °F - 10.4 °F 68% 30.07 in 10.0 mi Calm Calm - N/A   Clear
9:52 PM 17.6 °F - 10.4 °F 73% 30.08 in 10.0 mi Calm Calm - N/A   Clear
10:12 PM 17.6 °F - 10.4 °F 73% 30.08 in 10.0 mi Calm Calm - N/A   Clear
10:32 PM 17.6 °F - 10.4 °F 73% 30.09 in 10.0 mi Calm Calm - N/A   Clear
10:52 PM 17.6 °F - 10.4 °F 73% 30.09 in 10.0 mi Calm Calm - N/A   Clear
11:11 PM 17.6 °F - 10.4 °F 73% 30.09 in 10.0 mi Calm Calm - N/A   Clear
11:32 PM 17.6 °F - 12.2 °F 79% 30.09 in 10.0 mi Calm Calm - N/A   Clear
11:52 PM 15.8 °F - 10.4 °F 79% 30.09 in 10.0 mi Calm Calm - N/A   Clear